Location: Little Baddow
(51.7333°N, 0.5667°E)
Time: 06:55:33
(UTC+00:00)

NOSS 3-1 (A) - Pass Details

Date: 08 November 2025
Orbit: 621 x 1586 km, 63.4° (Epoch: 02 December)

Event Time Altitude Azimuth Distance (km) Brightness Sun altitude
Exits shadow 05:07:17 - 204° (SSW) 2,910 5.8 -18.2°
Reaches altitude 10° 05:09:21 10° 199° (SSW) 2,104 5.1 -17.9°
Maximum altitude 05:13:54 50° 124° (SE) 955 3.8 -17.2°
Drops below altitude 10° 05:19:25 10° 51° (NE) 2,550 6.3 -16.4°
Sets 05:22:17 0° 46° (NE) 3,650 7.1 -15.9°
